Flag for U.S.A. Weather past 2 weeks in Jackson, Mississippi, U.S.A.

Now
67 °F

Thunderstorms. Low clouds.


Feels Like: 67 °F
Forecast: 66 / 81 °F
Wind: 10 mph from South

Location: Hawkins Field

Current Time: Apr 19, 2015 at 5:38:14 AM

Latest Report: Apr 19, 2015 at 4:53 AM


Visibility: 10 mi

Pressure: 29.72 "Hg

Humidity: 93%

Dew point: 65 °F

Location of JacksonLocation

Historic Weather in Jackson — Graph

°F

Jackson temperature yesterday

Maximum temperature yesterday: 73 °F (at 2:53 PM)
Minimum temperature yesterday: 65 °F (at 4:53 AM)
Average temperature yesterday: 68 °F

Past Weeks' High & Low Weather Summary

 TemperatureHumidityPressure
High85 °F (Apr 8, 3:53 PM)97% (Apr 14, 10:53 PM)30.32 "Hg (Apr 14, 10:53 PM)
Low48 °F (Apr 5, 6:53 AM)27% (Apr 4, 4:53 PM)29.72 "Hg (Apr 19, 3:53 AM)
Average68 °F78%30.02 "Hg
* Reported Apr 4 3:53 AM — Apr 19 3:53 AM, Jackson, Weather by CustomWeather, © 2015

Note: Actual official high and low records may vary slightly from our data, if they occured in-between our weather recording intervals... More about our weather records

Advertising

Jackson weather history for previous 24 hours

 ConditionsComfort  
Time TempWeatherWind HumidityBarometerVisibility
3:53 AM
Sun, Apr 19
66 °FThunderstorms. Mostly cloudy.3 mph93%29.72 "Hg10 mi
2:53 AM65 °FLight rain. Overcast.7 mph94%29.73 "Hg9 mi
1:53 AM65 °FLight rain. Overcast.6 mph97%29.75 "Hg10 mi
12:53 AM67 °FRain. Fog.5 mph97%29.76 "Hg4 mi
11:53 PM
Sat, Apr 18
67 °FLight rain. Mostly cloudy.5 mph97%29.76 "Hg7 mi
10:56 PM67 °FRain. Fog.6 mph97%29.79 "Hg3 mi
9:59 PM68 °FHeavy rain. Fog.5 mph93%29.80 "Hg2 mi
8:53 PM68 °FLight rain. Overcast.7 mph93%29.79 "Hg7 mi
8:01 PM68 °FLow clouds.6 mph93%29.82 "Hg8 mi
7:53 PM68 °FOvercast.7 mph93%29.80 "Hg7 mi
6:53 PM69 °FLight rain. Fog.6 mph90%29.81 "Hg5 mi
6:01 PM70 °FOvercast.5 mph87%29.84 "Hg10 mi
4:53 PM71 °FMore clouds than sun.8 mph81%29.83 "Hg10 mi
3:53 PM72 °FOvercast.6 mph78%29.83 "Hg10 mi
2:53 PM73 °FMore clouds than sun.No wind76%29.85 "Hg10 mi
1:53 PM71 °FMostly cloudy.3 mph78%29.87 "Hg10 mi
1:04 PM72 °FBroken clouds.5 mph76%29.90 "Hg10 mi
12:53 PM72 °FPartly sunny.7 mph76%29.89 "Hg10 mi
11:53 AM70 °FOvercast.9 mph81%29.90 "Hg9 mi
10:53 AM68 °FLow clouds.6 mph84%29.93 "Hg9 mi
9:53 AM66 °FLow clouds.7 mph87%29.93 "Hg9 mi
8:53 AM65 °FLow clouds.7 mph91%29.93 "Hg8 mi
7:53 AM65 °FFog.9 mph91%29.92 "Hg6 mi
6:53 AM65 °FLow clouds.7 mph91%29.89 "Hg8 mi
5:53 AM65 °FLow clouds.8 mph91%29.91 "Hg9 mi
Weather by CustomWeather, © 2015

See weather overviewHow to use our weather pages